Weather in Beloozyorsk

Belarus     52°28′10″N   25°10′29″E
temp.,
°C
wind,
m/s
gust,
m/s
humid.,
%
clouds,
%
prec.,
mm/h
press.,
hPa
HPBL,
m
12 may, wed
wed1200:00+12ese411835 0.0 1017209
03:00+10ese411885 0.0 1017202
06:00+10ese410944 0.0 1016199
09:00+16ese711800 0.0 1016578
12:00+18ese810623 0.0 10151229
15:00+18ese79481 0.0 10151628
18:00+17ese69570 0.0 10141529
21:00+12e511685 0.0 1013315
13 may, thu
thu1300:00+8sse35862 0.0 101286
03:00+6sse118835 0.0 101111
06:00+6ese2286100 0.0 100929
09:00+10se357499 0.0 1008403
12:00+12se4769100 0.3 10061044
15:00+14ese4762100 0.7 10041470
18:00+12sse4977100 0.3 1003498
21:00+11se5108594 0.6 1003523
14 may, fri
fri1400:00+10se6139699 1.9 1002547
03:00+11sse5119792 2.6 1002499
06:00+11sse51098100 1.6 1001429
09:00+11sse61197100 2.3 1002625
12:00+12s61094100 0.4 1003692
15:00+12ssw5994100 0.6 1004527
18:00+15s4782100 0.1 1004835
21:00+12ssw3796100 0.3 1005195
15 may, sat
sat1500:00+10sw379890 0.0 1006169
03:00+11wsw4896100 0.2 1007354
06:00+9wsw4895100 0.5 1007346
09:00+10wsw3592100 0.8 1008370
12:00+13wsw3476100 0.1 1009921
15:00+12wsw4576100 0.1 1009744
18:00+12w3583100 0.0 1009533
21:00+11wsw1190100 0.1 101015
16 may, sun
sun1600:00+10sw1189100 0.0 101015
03:00+8ssw229398 0.0 101118
06:00+7w00930 0.0 101110
09:00+13ese22750 0.0 1012346
12:00+18se3360100 0.0 10121059
15:00+19ese3456100 0.0 10101341
18:00+18e3568100 0.0 1009553
21:00+15e3107696 0.1 1009223